Home > Weather > Manado > Past weeks

Flag for Indonesia Weather for the Past 2 Weeks in Manado, North Sulawesi, Indonesia

Now
75 °F

Passing clouds.


Feels Like: 74 °F
Forecast: 74 / 87 °F
Wind: 2 mph from East

Location: Menado / Dr. Sam Ratulangi

Current Time: Feb 14, 2016 at 12:05:43 AM

Latest Report: Feb 13, 2016 at 11:30 PM


Visibility: 6 mi

Pressure: 29.92 "Hg

Humidity: 94%

Dew point: 73 °F

Location of ManadoLocation

Historic Weather in Manado — Graph

°F

Manado Temperature Yesterday

Maximum temperature yesterday: 90 °F (at 10:00 AM)
Minimum temperature yesterday: 70 °F (at 5:00 AM)
Average temperature yesterday: 80 °F

High & Low Weather Summary for the Past Weeks

 TemperatureHumidityPressure
High91 °F (Jan 30, 1:30 PM)100% (Jan 30, 12:30 AM)29.95 "Hg (Jan 30, 12:30 AM)
Low70 °F (Feb 13, 5:00 AM)41% (Jan 30, 1:30 PM)29.53 "Hg (Feb 2, 12:30 PM)
Average80 °F84%29.84 "Hg
* Reported Jan 29 11:00 PM — Feb 13 11:00 PM, Manado, Weather by CustomWeather, © 2016

Note: Actual official high and low records may vary slightly from our data, if they occured in-between our weather recording intervals... More about our weather records

Advertising

Manado Weather History for the Previous 24 Hours

 ConditionsComfort  
Time TempWeatherWind HumidityBarometerVisibility
11:00 PM
Sat, Feb 13
75 °FPassing clouds.2 mph94%29.92 "Hg6 mi
10:30 PM75 °FPassing clouds.2 mph94%29.92 "HgN/A
10:00 PM75 °FPassing clouds.2 mph100%29.92 "HgN/A
9:30 PM77 °FPassing clouds.2 mph94%29.92 "HgN/A
9:00 PM77 °FPassing clouds.2 mph94%29.92 "HgN/A
8:30 PM77 °FPassing clouds.2 mph94%29.92 "HgN/A
8:00 PM77 °FPassing clouds.No wind94%29.92 "HgN/A
7:30 PM79 °FPassing clouds.2 mph89%29.89 "HgN/A
7:00 PM79 °FPassing clouds.2 mph84%29.89 "HgN/A
6:30 PM81 °FPassing clouds.2 mph84%29.89 "HgN/A
6:00 PM81 °FPassing clouds.5 mph84%29.86 "HgN/A
5:30 PM81 °FScattered clouds.7 mph79%29.86 "HgN/A
5:00 PM82 °FScattered clouds.7 mph74%29.83 "HgN/A
4:30 PM84 °FPassing clouds.8 mph70%29.83 "HgN/A
4:00 PM86 °FPassing clouds.9 mph66%29.83 "HgN/A
3:30 PM86 °FPassing clouds.9 mph66%29.83 "HgN/A
3:00 PM86 °FPassing clouds.8 mph66%29.83 "HgN/A
2:30 PM88 °FPassing clouds.8 mph59%29.83 "HgN/A
2:00 PM88 °FPassing clouds.9 mph59%29.83 "HgN/A
1:30 PM90 °FPassing clouds.9 mph59%29.83 "HgN/A
1:00 PM88 °FPassing clouds.8 mph59%29.83 "HgN/A
12:30 PM90 °FPassing clouds.10 mph52%29.86 "HgN/A
12:00 PM90 °FPassing clouds.8 mph52%29.86 "HgN/A
11:30 AM90 °FPassing clouds.8 mph59%29.89 "HgN/A
11:00 AM90 °FPassing clouds.3 mph55%29.89 "HgN/A
10:30 AM90 °FPassing clouds.5 mph55%29.89 "HgN/A
10:00 AM90 °FPassing clouds.2 mph52%29.92 "HgN/A
9:30 AM88 °FPassing clouds.2 mph59%29.92 "HgN/A
9:00 AM86 °FPassing clouds.2 mph62%29.92 "HgN/A
8:30 AM82 °FPassing clouds.1 mph74%29.92 "HgN/A
8:00 AM77 °FPassing clouds.2 mph89%29.95 "HgN/A
7:30 AM73 °FPassing clouds.2 mph100%29.92 "HgN/A
7:00 AM73 °FPassing clouds.2 mph94%29.92 "HgN/A
6:30 AM72 °FPassing clouds.2 mph94%29.92 "HgN/A
6:00 AM70 °FPassing clouds.2 mph100%29.92 "Hg6 mi
5:30 AM70 °FPassing clouds.2 mph100%29.89 "Hg6 mi
5:00 AM70 °FPassing clouds.2 mph100%29.89 "Hg6 mi
4:00 AM72 °FPassing clouds.3 mph94%29.86 "Hg6 mi
3:00 AM72 °FPassing clouds.3 mph94%29.83 "Hg6 mi
2:30 AM72 °FPassing clouds.No wind94%29.86 "Hg6 mi
2:00 AM72 °FPassing clouds.1 mph100%29.86 "Hg6 mi
1:30 AM72 °FPassing clouds.2 mph100%29.86 "Hg6 mi
1:00 AM72 °FPassing clouds.2 mph100%29.86 "Hg6 mi
12:30 AM73 °FPassing clouds.2 mph94%29.89 "Hg6 mi
12:00 AM73 °FPassing clouds.2 mph94%29.89 "Hg6 mi
Weather by CustomWeather, © 2016

See weather overviewHow to use our weather pages